Location: Innerarity Island Observatory
(30.3139°N, 87.4867°W)
Time: 13:49:18
(UTC-06:00)

OPAL - Visible Passes

Search period start: 23 November 2014 00:00
Search period end: 03 December 2014 00:00
Orbit: 744 x 797 km, 100.2° (Epoch: 22 November)

Date Brightness Start Highest point End Pass type
(mag) Time Alt. Az. Time Alt. Az. Time Alt. Az.
23 Nov 10.0 03:34:25 10° ESE 03:37:23 16° ENE 03:40:20 10° NNE visible
23 Nov 7.8 05:11:06 10° S 05:15:51 45° WSW 05:20:36 10° NNW visible
23 Nov 7.5 17:26:12 10° NNE 17:31:15 79° ESE 17:36:20 10° SSW visible
24 Nov 7.6 04:35:39 10° SSE 04:40:36 73° ENE 04:45:16 12° N visible
24 Nov 9.7 18:30:43 10° NNW 18:34:35 23° WNW 18:38:30 10° WSW visible
25 Nov 9.2 04:01:14 10° SE 04:05:31 30° ENE 04:09:27 12° NNE visible
25 Nov 8.6 05:40:26 10° SSW 05:44:19 23° W 05:48:12 10° NW visible
25 Nov 8.3 17:54:39 10° N 17:59:33 54° WNW 18:04:30 10° SSW visible
26 Nov 10.2 03:28:31 10° E 03:30:36 13° ENE 03:32:41 10° NE visible
26 Nov 7.5 05:04:05 10° S 05:08:57 57° WSW 05:13:49 10° NNW visible
26 Nov 7.6 17:19:22 10° NNE 17:24:22 63° ESE 17:29:25 10° S visible
26 Nov 10.3 19:00:47 10° NW 19:02:41 12° WNW 19:04:35 10° W visible
27 Nov 8.0 04:28:53 10° SSE 04:33:44 58° ENE 04:38:06 13° N visible
27 Nov 9.4 18:23:31 10° N 18:27:47 28° WNW 18:32:05 10° SW visible
28 Nov 9.5 03:54:46 10° ESE 03:58:41 24° ENE 04:02:17 11° NNE visible
28 Nov 8.3 05:33:08 10° SSW 05:37:23 29° W 05:41:38 10° NW visible
28 Nov 7.9 17:47:41 10° N 17:52:42 68° WNW 17:57:47 10° SSW visible
29 Nov 7.3 04:57:07 10° S 05:02:03 72° WSW 05:06:47 11° NNW visible
29 Nov 7.8 17:12:34 10° NNE 17:17:29 49° ESE 17:22:26 10° S visible
29 Nov 10.2 18:53:02 10° NNW 18:55:54 15° WNW 18:58:48 10° W visible
30 Nov 8.4 04:22:11 10° SE 04:26:53 45° ENE 04:30:58 13° N visible
30 Nov 9.1 06:03:13 10° SW 06:05:54 15° W 06:08:34 10° WNW visible
30 Nov 9.0 18:16:23 10° N 18:20:58 35° WNW 18:25:35 10° SW visible
01 Dec 9.8 03:48:25 10° ESE 03:51:52 19° ENE 03:55:10 11° NNE visible
01 Dec 8.0 05:25:55 10° SSW 05:30:27 36° W 05:34:59 10° NW visible
01 Dec 7.6 17:40:45 10° NNE 17:45:51 85° WNW 17:50:59 10° SSW visible
02 Dec 7.4 04:50:12 10° SSE 04:55:09 89° ENE 04:59:40 13° NNW visible
02 Dec 9.9 18:45:36 10° NNW 18:49:07 19° WNW 18:52:40 10° WSW visible
